RH
79 77 76 72 62 50 40 37 61 97 92 83 82 86 87 85 87 86 78 79 78 78 79 80 89 88 78 63 49 40 32 34 50 74 80 80 82 83
83 81 78 74 69 57 50 44 43 47 83 71 78 76 81 84 84 83 81 77 76 74 70 76 92 93 86 66 49 40 32 28 33 66 79 79 82 84
84 82 80 77 74 66 56 52 50 50 54 51 58 71 66 72 82 82 78 76 74 72 66 67 88 93 84 67 52 44 35 32 40 55 73 76 82 86
80 82 79 77 74 68 61 58 56 54 52 51 54 63 67 64 66 76 76 74 71 67 63 65 81 87 75 62 53 48 40 36 34 29 32 65 84 88
78 79 74 75 72 69 64 60 58 58 57 54 55 65 71 71 72 74 74 72 70 68 65 70 75 73 76 66 61 56 48 44 44 33 40 66 89 90
82 75 74 73 71 68 66 64 61 62 62 62 61 66 72 76 77 75 78 74 72 69 74 84 84 87 86 83 79 68 63 55 49 45 78 79 92 91
84 78 76 72 70 69 68 67 67 68 69 70 69 74 75 76 76 75 78 76 74 71 75 85 97 94 87 73 78 75 71 64 59 74 83 92 93 91
90 83 78 74 76 77 76 75 70 70 73 74 77 72 70 70 70 75 78 83 92 86 93 96 95 91 74 63 58 66 68 53 65 79 83 92 92 89
87 83 78 78 80 85 86 85 83 80 78 71 76 74 71 66 71 78 80 83 91 92 96 99 91 78 66 60 65 88 53 65 76 80 80 88 89 91
87 90 91 85 78 81 85 91 93 92 90 87 83 82 86 87 85 85 84 98 99 96 91 76 65 64 62 66 76 57 56 67 73 72 80 82 84 84
93 88 98 99 96 99 99 98 98 97 99 100 99 100 100 100 100 100 100 100 96 90 88 76 67 66 59 55 55 52 50 69 67 63 53 50 78 88
100 100 99 100 100 99 99 100 100 99 100 100 100 100 100 100 100 100 98 99 82 80 77 74 67 60 72 56 51 49 50 60 64 56 47 35 66 57
100 100 99 99 100 100 100 100 100 100 100 100 100 100 100 99 98 96 92 88 80 81 80 81 77 74 70 37 42 45 51 56 55 48 34 39 43 57
99 99 99 99 99 100 100 100 100 100 100 100 100 100 100 99 97 89 82 82 86 91 88 77 78 57 46 42 36 39 38 40 38 35 38 41 37 38
100 99 99 99 100 100 99 99 99 100 100 100 99 98 97 93 89 90 93 99 96 96 90 78 76 47 40 37 39 42 41 36 36 48 40 41 41 36
100 100 100 100 100 100 100 100 100 100 99 97 94 91 88 88 96 99 98 97 96 80 75 67 55 44 39 41 46 44 42 48 44 55 50 41 35 33
99 100 100 100 100 100 100 100 100 98 96 90 88 86 89 98 99 99 99 98 86 68 59 52 49 50 51 49 45 38 46 53 58 57 55 43 30 32
99 100 100 100 100 100 100 100 100 100 97 93 98 98 98 98 97 98 98 96 57 54 56 67 65 55 42 40 40 44 62 55 53 52 54 59 40 27
100 100 100 100 100 100 100 99 99 99 99 99 99 99 98 98 98 97 93 56 53 62 73 76 67 49 61 80 50 52 58 56 59 51 48 60 66 34
100 99 99 100 100 100 100 100 100 100 99 98 98 98 98 97 97 96 77 58 66 82 83 76 60 60 56 66 73 51 58 70 69 60 55 54 47 39
94 99 99 99 99 99 100 100 100 100 99 98 98 98 98 97 97 96 76 66 70 75 81 71 68 78 87 81 86 75 58 65 69 68 63 76 74 54
98 100 99 100 100 99 100 100 100 100 99 98 98 98 97 97 97 92 69 81 79 70 68 69 72 78 82 88 90 84 75 58 57 56 54 68 74 89
99 100 100 100 100 100 100 100 99 99 98 98 98 97 97 97 97 86 71 78 73 71 64 72 78 82 89 86 86 83 78 66 62 53 44 52 59 84
Wind_Speed
46 43 40 38 32 25 23 21 13 4 8 23 19 33 32 30 29 28 24 23 21 22 22 20 21 21 16 12 11 11 10 9 8 7 8 9 10 11
43 43 40 37 35 29 24 23 23 16 4 22 32 23 31 35 31 29 27 24 23 21 21 23 24 22 17 15 12 11 11 11 10 9 9 10 10 11
37 40 40 38 37 34 29 25 25 22 12 8 18 26 23 26 30 29 27 26 23 21 22 23 24 23 18 17 15 13 14 13 12 11 11 11 12 9
38 38 38 36 35 34 35 32 27 26 22 13 13 18 22 23 24 26 27 25 23 21 22 22 23 21 18 17 16 15 14 14 15 14 14 13 11 10
36 37 37 35 34 35 34 36 35 30 27 21 14 15 21 22 24 24 25 25 23 21 22 22 22 20 18 17 17 16 15 16 15 15 14 13 11 11
35 34 35 34 33 34 34 35 33 31 29 25 18 15 17 21 20 24 25 27 25 23 23 24 22 19 17 16 17 16 16 15 15 14 12 12 11 12
33 34 33 31 31 31 32 33 31 29 29 26 18 13 16 16 22 23 25 26 24 24 24 25 25 23 20 19 18 18 18 18 16 13 13 11 12 13
30 30 28 27 27 27 28 31 31 33 32 28 23 19 28 25 23 26 24 18 8 26 25 28 26 25 22 20 18 19 21 18 15 12 13 12 14 16
25 22 22 23 22 24 25 26 27 27 29 32 28 32 28 32 27 24 27 24 17 13 19 22 24 26 22 19 18 19 18 15 13 13 13 12 14 15
20 19 21 21 21 21 21 21 24 24 25 28 27 29 27 30 27 27 27 23 17 13 14 10 14 22 20 19 19 17 16 14 14 14 12 13 15 16
22 24 26 25 26 25 24 25 27 26 25 25 26 28 24 22 21 21 20 20 8 11 18 11 9 11 12 14 17 17 16 15 15 15 14 16 15 15
9 11 12 13 12 14 18 22 24 25 24 22 19 18 15 14 15 18 20 24 9 6 17 16 10 8 3 10 13 14 14 14 16 15 17 18 15 18
5 6 7 9 10 11 13 17 19 19 18 18 17 15 14 15 16 16 15 21 20 6 11 20 11 12 8 4 5 9 12 14 16 16 18 17 17 18
5 5 7 8 10 11 12 12 13 13 12 15 16 15 16 17 16 15 16 15 13 10 10 17 5 12 9 3 3 5 7 9 14 14 16 17 20 19
2 3 5 6 7 7 9 8 11 10 14 17 17 18 19 18 17 17 15 13 12 9 12 14 12 8 8 4 2 5 8 7 14 7 17 21 23 22
1 1 2 4 6 7 8 10 9 9 14 17 19 18 19 20 19 17 17 14 13 11 9 9 8 8 8 8 9 11 10 8 8 13 18 23 24 23
4 2 3 5 8 11 10 13 11 11 15 17 19 21 22 19 17 16 15 16 10 14 12 9 7 5 5 7 9 8 7 10 9 15 19 24 26 26
5 6 6 9 12 15 14 14 14 12 14 15 19 22 23 22 19 16 16 15 14 14 12 10 6 3 4 4 6 7 8 7 12 13 16 20 28 27
10 8 7 9 12 14 16 16 17 16 13 15 19 22 23 22 20 19 18 16 14 14 12 10 6 2 2 1 4 7 8 9 14 16 16 19 25 28
10 12 9 11 13 15 17 18 17 17 16 17 20 22 23 25 24 22 21 19 17 15 13 9 6 4 4 3 3 3 8 13 13 17 20 23 26 25
7 10 14 13 13 16 18 17 17 17 19 20 21 23 25 27 25 23 21 18 18 15 14 11 7 4 2 4 5 8 9 7 12 15 20 21 17 21
11 11 13 14 14 14 17 17 17 17 19 20 21 22 24 26 26 24 22 21 18 16 12 9 6 3 2 3 9 13 16 13 10 12 11 12 11 7
14 14 14 12 12 14 16 17 18 19 20 21 22 23 25 25 23 22 22 19 16 15 11 8 5 2 3 6 9 14 15 15 16 17 13 6 13 15
Wind_Direction
226 228 230 232 230 231 232 225 186 183 221 226 223 226 227 229 230 230 233 229 234 237 237 231 232 238 251 254 265 277 279 287 292 296 298 308 313 315
226 230 231 235 235 231 232 232 225 217 202 224 228 227 228 230 229 231 236 232 238 243 239 230 234 238 248 263 268 271 276 277 280 285 292 301 306 311
223 231 234 235 238 235 229 232 229 230 222 238 233 227 231 231 230 229 230 232 235 240 236 236 236 238 251 261 265 267 271 277 279 287 295 301 302 305
228 228 233 236 237 239 233 230 232 232 235 226 229 223 223 232 231 228 227 228 233 235 233 234 235 239 249 258 261 265 270 277 281 287 294 299 302 304
225 228 234 234 237 238 237 236 236 237 234 235 227 222 221 225 222 222 225 228 232 232 233 234 234 243 246 253 259 264 270 274 281 290 291 295 297 294
236 239 238 237 239 240 238 238 239 236 233 230 221 213 221 228 224 220 218 222 225 226 226 232 243 241 243 248 256 262 267 277 284 288 286 289 289 294
233 237 240 245 248 249 246 241 237 234 229 221 213 206 209 211 215 222 222 223 225 229 230 238 236 240 243 242 253 263 271 279 281 281 290 287 284 297
238 240 243 247 250 252 251 253 249 237 230 221 221 218 225 222 223 219 213 207 226 236 236 242 235 240 246 250 254 260 271 271 272 275 288 282 288 301
230 240 244 246 248 247 247 248 248 248 250 247 226 228 230 234 227 216 216 216 220 217 219 237 241 241 243 250 255 265 261 263 264 267 281 285 290 296
229 251 249 248 239 239 239 241 243 243 243 243 246 251 252 247 237 240 232 218 219 224 211 218 238 237 244 249 254 252 254 256 260 264 273 289 300 301
246 245 251 252 247 241 240 242 250 253 249 244 247 250 247 240 232 225 206 191 182 197 202 214 215 222 235 242 250 250 252 244 247 259 281 297 299 299
210 218 229 236 242 237 236 237 237 238 235 226 225 225 227 223 225 221 213 186 156 169 204 200 200 197 237 248 245 243 244 242 255 271 287 294 294 302
228 231 233 243 239 233 231 240 242 243 228 223 218 214 205 206 205 203 212 215 193 166 194 190 202 207 215 209 229 237 249 259 271 279 290 294 302 309
249 240 242 238 236 227 230 231 239 242 230 211 198 191 192 191 190 189 196 199 201 215 201 199 213 205 197 200 258 267 264 271 283 286 296 301 309 318
218 214 210 221 210 207 209 225 221 215 202 190 188 184 184 180 174 170 173 178 172 175 177 199 224 215 217 224 257 279 305 294 292 295 312 315 321 327
8 226 198 199 204 204 191 193 202 198 197 194 190 180 173 168 170 174 159 161 158 151 173 190 204 212 220 239 256 273 288 289 292 314 317 319 325 332
333 276 210 190 185 183 188 195 195 190 192 192 186 177 175 176 172 173 172 168 173 174 172 178 191 211 240 263 271 278 287 291 309 322 327 327 325 334
300 273 238 210 202 201 201 197 204 207 208 202 196 194 190 186 179 179 184 181 186 181 179 183 195 235 266 267 268 271 276 291 318 325 331 333 325 334
251 266 262 249 235 226 222 218 213 218 222 216 210 203 199 196 189 184 178 188 182 178 180 185 193 200 93 235 241 268 277 309 321 322 328 329 317 326
248 254 272 264 249 239 233 226 223 221 215 214 212 209 206 199 191 185 186 186 179 171 175 184 193 201 208 215 296 253 305 311 317 319 323 324 321 327
276 267 258 255 256 249 243 236 234 228 220 214 211 208 204 199 194 188 187 187 180 181 181 191 194 199 234 296 292 311 330 320 309 310 315 313 317 323
300 270 258 246 247 242 241 237 234 226 222 217 214 209 205 201 193 187 186 178 184 187 187 181 187 211 258 279 298 312 316 330 320 315 309 281 283 297
327 306 271 252 252 244 236 229 227 226 225 220 215 209 203 196 192 187 186 185 178 174 175 170 175 199 263 296 307 311 316 325 331 334 348 333 322 284